Weather History for Daggett-Barstow, CA

Change the Weather History Date:

Tuesday, March 5, 2013

  Actual Average Record
Temperature  
Mean Temperature 62 °F -  
Max Temperature 78 °F 67 °F 87 °F (1972)
Min Temperature 46 °F 43 °F 31 °F (1985)
Degree Days  
Heating Degree Days 3    
Growing Degree Days 12 (Base 50)    
Moisture  
Dew Point 34 °F    
Average Humidity 39    
Maximum Humidity 59    
Minimum Humidity 17    
Precipitation  
Precipitation 0.00 in - - ()
Sea Level Pressure  
Sea Level Pressure 29.94 in    
Wind  
Wind Speed 9 mph (WNW)    
Max Wind Speed 23 mph    
Max Gust Speed 29 mph    
Visibility 10 miles    
Events      
Averages and records for this station are not official NWS values.
T = Trace of Precipitation, MM = Missing Value Source: NWS Daily Summary

Daily Weather History Graph

Daily Weather History Graph

Search for Another Location

Airport:

Trip Planner

Search our weather history database for the weather conditions in past years. The results will help you decide how hot, cold, wet, or windy it might be!

Date:

Astronomy

Mar. 05, 2013 Rise Set
Actual Time 6:10 AM PST 5:46 PM PST
Civil Twilight 5:45 AM PST 6:12 PM PST
Nautical Twilight 5:16 AM PST 6:41 PM PST
Astronomical Twilight 4:47 AM PST 7:10 PM PST
Moon 1:17 AM PST (3/5) 11:40 AM PST (3/5)
Length of Visible Light 12h 26m
Length of Day
11h 35m
Last Quarter, 39% of the Moon is Illuminated
Mar 5
Last Quarter
Mar 11
New
Mar 19
First Quarter
Mar 27
Full
Apr 2
Last Quarter

Hourly Weather History & Observations

Time (PST) Temp. Windchill Dew Point Humidity Pressure Visibility Wind Dir Wind Speed Gust Speed Precip Events Conditions
12:50 AM 48.9 °F - 28.0 °F 44% 30.02 in 10.0 mi West 8.1 mph - N/A   Clear
1:50 AM 51.1 °F - 28.0 °F 41% 30.02 in 10.0 mi West 12.7 mph - N/A   Clear
2:50 AM 48.9 °F - 28.0 °F 44% 30.01 in 10.0 mi WSW 8.1 mph - N/A   Clear
3:50 AM 46.0 °F 43.1 °F 30.0 °F 54% 30.01 in 10.0 mi NW 5.8 mph - N/A   Clear
5:50 AM 46.9 °F - 30.9 °F 54% 30.03 in 10.0 mi West 11.5 mph - N/A   Clear
6:50 AM 46.0 °F 43.9 °F 32.0 °F 58% 30.04 in 10.0 mi North 4.6 mph - N/A   Clear
7:50 AM 51.1 °F - 34.0 °F 52% 30.04 in 10.0 mi Calm Calm - N/A   Clear
8:50 AM 57.9 °F - 36.0 °F 44% 30.04 in 10.0 mi Calm Calm - N/A   Clear
9:50 AM 62.1 °F - 34.0 °F 35% 30.02 in 10.0 mi NE 4.6 mph - N/A   Clear
10:50 AM 66.0 °F - 30.9 °F 27% 30.00 in 10.0 mi Calm Calm - N/A   Clear
11:50 AM 70.0 °F - 32.0 °F 25% 29.97 in 10.0 mi WNW 3.5 mph - N/A   Clear
12:50 PM 75.0 °F - 30.0 °F 19% 29.93 in 10.0 mi NNW 5.8 mph - N/A   Clear
1:50 PM 78.1 °F - 28.9 °F 17% 29.88 in 10.0 mi Variable 3.5 mph - N/A   Clear
2:50 PM 78.1 °F - 28.9 °F 17% 29.86 in 10.0 mi NNW 8.1 mph - N/A   Clear
3:50 PM 77.0 °F - 33.1 °F 20% 29.84 in 10.0 mi WSW 23.0 mph 28.8 mph N/A   Clear
3:57 PM 75.2 °F - 33.8 °F 22% 29.88 in 10.0 mi WSW 21.9 mph 28.8 mph N/A   Clear
4:50 PM 73.0 °F - 36.0 °F 26% 29.84 in 10.0 mi SW 16.1 mph - N/A   Clear
5:50 PM 68.0 °F - 37.9 °F 33% 29.85 in 10.0 mi SSW 18.4 mph 24.2 mph N/A   Clear
6:50 PM 66.9 °F - 37.9 °F 34% 29.87 in 10.0 mi WNW 6.9 mph - N/A   Clear
7:50 PM 62.1 °F - 37.9 °F 41% 29.88 in 10.0 mi NW 13.8 mph - N/A   Clear
8:50 PM 59.0 °F - 39.0 °F 48% 29.90 in 10.0 mi WNW 12.7 mph - N/A   Clear
9:50 PM 55.9 °F - 39.0 °F 53% 29.91 in 10.0 mi West 13.8 mph - N/A   Clear
10:50 PM 53.1 °F - 39.0 °F 59% 29.91 in 10.0 mi West 10.4 mph - N/A   Clear
11:50 PM 53.1 °F - 39.0 °F 59% 29.92 in 10.0 mi WNW 16.1 mph 25.3 mph N/A   Clear